[[{"header":{"parameterUnit":"m.s-1","parameterCategory":1,"la1":30.2991,"la2":30.254,"lo1":-89.0895,"lo2":-89.0444,"dy":0.0017,"dx":0.0017,"nx":28,"ny":28,"refTime":"2025-09-11T03:00:00:Z","depth":0,"parameterNumber":2,"parameterNumberName":"U-component_of_WINDS"},"data":[0,0,0,0,0,0,0,0,0,0,0,0,0,0,0,0,0,0,0,0,0,0,0,0,0,0,0,0,0,0,0,0,0,0,0,0,0,0,0,0,0,0,0,0,0,0,0,0,0,0,0,0,0,0,0,0,0,0,-0.2113,-0.2111,0,-0.2,-0.1999,-0.1998,-0.1945,-0.1945,-0.1945,-0.1946,-0.1831,-0.1828,-0.1824,0,0,0,0,0,0,0,0,0,0,0,0,0,-0.2285,-0.2282,-0.2113,-0.2111,-0.211,-0.2001,-0.1999,-0.1997,-0.1945,-0.1945,-0.1945,-0.1946,-0.1832,-0.1828,-0.1824,0,0,0,0,0,0,0,0,0,0,0,0,0,-0.2195,-0.2281,-0.2113,-0.2071,-0.2066,-0.2001,-0.1999,-0.1997,-0.1945,-0.1945,-0.1946,-0.1946,-0.1833,-0.1828,-0.1824,-0.1792,0,0,-0.1809,-0.1807,0,0,0,0,0,0,0,0,-0.22,-0.2189,-0.2078,-0.2074,-0.2068,-0.1987,-0.2017,-0.1928,-0.1945,-0.1991,-0.1946,-0.1946,-0.1883,-0.1874,-0.1852,-0.1787,-0.1782,-0.1809,-0.1806,-0.1804,-0.1803,0,0,0,0,0,0,0,-0.2207,-0.2193,-0.2068,-0.2077,-0.207,-0.2058,-0.2046,-0.2,-0.1938,-0.1987,-0.1983,-0.197,-0.188,-0.1857,-0.1849,-0.178,-0.1809,-0.1805,-0.1802,-0.18,-0.1687,-0.1687,0,0,0,0,0,0,-0.222,-0.2199,-0.2072,-0.2065,-0.2136,-0.2055,-0.2041,-0.2013,-0.1938,-0.1927,-0.197,-0.1968,-0.1865,-0.1855,-0.1845,-0.1806,-0.1804,-0.18,-0.1797,-0.1687,-0.1687,-0.1687,0,0,0,0,0,0,-0.2223,-0.2209,-0.2076,-0.2131,-0.2113,-0.2052,-0.2021,-0.2011,-0.1988,-0.1925,-0.1914,-0.1959,-0.1865,-0.1852,-0.1807,-0.1801,-0.1798,-0.1793,-0.1688,-0.1687,-0.1687,-0.1725,0,0,0,0,0,0,-0.2229,-0.221,-0.2197,-0.2131,-0.211,-0.2039,-0.202,-0.2008,-0.198,-0.1976,-0.1911,-0.1901,-0.1864,-0.1814,-0.1802,-0.1794,-0.179,-0.1688,-0.1688,-0.1687,-0.1724,-0.1726,-0.1728,0,0,0,0,0,-0.2235,-0.2211,-0.2196,-0.2181,-0.2092,-0.2039,-0.2027,-0.1985,-0.198,-0.1966,-0.1927,-0.1903,-0.1804,-0.181,-0.1796,-0.1787,-0.1688,-0.1688,-0.1687,-0.1723,-0.1726,-0.1728,0,0,0,0,0,0,-0.2277,-0.2202,-0.2184,-0.2139,-0.2096,-0.203,-0.2011,-0.1989,-0.1946,-0.1944,-0.1894,-0.188,-0.184,-0.1809,-0.1817,-0.1754,-0.1744,-0.1741,-0.1776,-0.1778,-0.178,-0.1788,-0.1786,0,0,0,0,0,-0.2281,-0.2244,-0.218,-0.2146,-0.2125,-0.2073,-0.2047,-0.2019,-0.1973,-0.1954,-0.1911,-0.1867,-0.1827,-0.18,-0.1759,-0.172,-0.1706,-0.1707,-0.1709,-0.1711,-0.1709,-0.1688,-0.1689,-0.1686,-0.1686,-0.1686,0,0,-0.2289,-0.2243,-0.2222,-0.2153,-0.2117,-0.208,-0.2057,-0.2018,-0.1991,-0.1948,-0.1903,-0.1871,-0.1819,-0.1777,-0.1757,-0.175,-0.1707,-0.171,-0.1712,-0.1709,-0.1688,-0.1688,-0.1689,-0.1685,-0.1686,-0.1686,0,0,-0.2285,-0.2246,-0.2214,-0.2179,-0.2124,-0.209,-0.2083,-0.2021,-0.1998,-0.1952,-0.192,-0.1888,-0.1818,-0.1783,-0.1756,-0.1743,-0.172,-0.1731,-0.1741,-0.1722,-0.1722,-0.1722,-0.172,-0.1719,-0.1729,-0.1729,-0.173,0,-0.2301,-0.2244,-0.2201,-0.2165,-0.2137,-0.2097,-0.2066,-0.2034,-0.1969,-0.1951,-0.1944,-0.1858,-0.182,-0.1771,-0.1769,-0.1747,-0.1739,-0.1738,-0.1726,-0.1725,-0.1725,-0.1722,-0.1721,-0.1731,-0.1731,-0.1731,-0.1731,0,-0.2268,-0.223,-0.2211,-0.215,-0.212,-0.2086,-0.204,-0.2014,-0.199,-0.1957,-0.1913,-0.1867,-0.1817,-0.1803,-0.1778,-0.1752,-0.175,-0.1735,-0.1724,-0.1728,-0.1724,-0.1722,-0.1734,-0.1733,-0.1733,-0.1732,0,0,-0.2285,-0.2203,-0.2197,-0.2171,-0.2109,-0.2079,-0.2045,-0.1997,-0.1978,-0.1935,-0.1907,-0.185,-0.1838,-0.1807,-0.1779,-0.1762,-0.1758,-0.175,-0.1748,-0.1754,-0.1729,-0.1741,-0.174,-0.1743,-0.1742,-0.1742,-0.1734,0,-0.2273,-0.221,-0.2172,-0.2125,-0.209,-0.2055,-0.2026,-0.1986,-0.1955,-0.1922,-0.1888,-0.185,-0.1835,-0.1817,-0.1799,-0.1762,-0.1752,-0.1762,-0.1717,-0.1716,-0.1732,-0.1737,-0.1749,-0.1743,-0.1732,-0.1731,-0.1731,0,-0.225,-0.2209,-0.2159,-0.2105,-0.2089,-0.2063,-0.2018,-0.1987,-0.1942,-0.1921,-0.1889,-0.1861,-0.1826,-0.1819,-0.1771,-0.1779,-0.1759,-0.1739,-0.1737,-0.1732,-0.1724,-0.1733,-0.174,-0.174,-0.1728,-0.1728,-0.1729,0,-0.2269,-0.2202,-0.2164,-0.2142,-0.2077,-0.2061,-0.2033,-0.1989,-0.1964,-0.1924,-0.1908,-0.1865,-0.1842,-0.1811,-0.1773,-0.177,-0.173,-0.1718,-0.1713,-0.1714,-0.1705,-0.1706,-0.171,-0.1692,-0.1692,-0.1692,-0.1692,0,-0.226,-0.2231,-0.2172,-0.2149,-0.2117,-0.2075,-0.2044,-0.2014,-0.1975,-0.1947,-0.1913,-0.1888,-0.1839,-0.1808,-0.1778,-0.1745,-0.1734,-0.1717,-0.171,-0.172,-0.1723,-0.1706,-0.1706,-0.1691,-0.1691,-0.1692,-0.1692,0,-0.2275,-0.2234,-0.2191,-0.2134,-0.212,-0.2099,-0.2051,-0.2028,-0.1997,-0.1962,-0.1951,-0.1902,-0.1864,-0.1824,-0.1771,-0.1752,-0.172,-0.1709,-0.1735,-0.1731,-0.1729,-0.173,-0.1722,-0.172,-0.1703,-0.1703,-0.1703,0,-0.2271,-0.2249,-0.2191,-0.2169,-0.2143,-0.2109,-0.2084,-0.2042,-0.2018,-0.1967,-0.1951,-0.1911,-0.1877,-0.1818,-0.1779,-0.174,-0.1728,-0.1728,-0.1722,-0.1734,-0.173,-0.1732,-0.173,-0.173,-0.173,-0.1731,-0.1731,0,-0.2271,-0.2253,-0.2217,-0.2176,-0.2147,-0.2113,-0.2077,-0.2062,-0.2014,-0.1988,-0.1949,-0.1923,-0.1871,-0.1833,-0.179,-0.1762,-0.174,-0.1734,-0.1731,-0.1741,-0.1758,-0.1751,-0.1742,-0.1734,-0.1734,-0.1733,-0.1733,-0.1733,-0.2277,-0.2257,-0.2213,-0.2176,-0.2145,-0.2113,-0.209,-0.2057,-0.2024,-0.1979,-0.1957,-0.1919,-0.1879,-0.1819,-0.1793,-0.1763,-0.1756,-0.1751,-0.175,-0.175,-0.1753,-0.1763,-0.1755,-0.1755,-0.1755,-0.1755,-0.1755,0,-0.2276,-0.2247,-0.2213,-0.2165,-0.2137,-0.2119,-0.2079,-0.2057,-0.2024,-0.1988,-0.1955,-0.1913,-0.1876,-0.1835,-0.1797,-0.1781,-0.177,-0.1773,-0.1773,-0.1768,-0.1761,-0.1768,-0.1783,-0.1783,-0.1783,-0.1783,-0.1783,-0.1783,-0.2272,-0.2237,-0.2214,-0.2165,-0.2136,-0.2099,-0.2078,-0.205,-0.2021,-0.1975,-0.1945,-0.1919,-0.1882,-0.1841,-0.1807,-0.1796,-0.1784,-0.179,-0.1777,-0.1771,-0.1768,-0.1766,-0.1773,-0.1788,-0.1788,-0.1786,-0.1786,-0.1786]},{"header":{"parameterUnit":"m.s-1","parameterCategory":1,"la1":30.2991,"la2":30.254,"lo1":-89.0895,"lo2":-89.0444,"dy":0.0017,"dx":0.0017,"nx":28,"ny":28,"refTime":"2025-09-11T03:00:00:Z","depth":0,"parameterNumber":3,"parameterNumberName":"V-component_of_WINDS"},"data":[0,0,0,0,0,0,0,0,0,0,0,0,0,0,0,0,0,0,0,0,0,0,0,0,0,0,0,0,0,0,0,0,0,0,0,0,0,0,0,0,0,0,0,0,0,0,0,0,0,0,0,0,0,0,0,0,0,0,3.2321,3.2321,0,3.2373,3.2374,3.2374,3.237,3.2369,3.2368,3.2368,3.2417,3.2419,3.2421,0,0,0,0,0,0,0,0,0,0,0,0,0,3.221,3.2212,3.2321,3.2321,3.2322,3.2373,3.2374,3.2374,3.237,3.2369,3.2368,3.2367,3.2416,3.2419,3.2421,0,0,0,0,0,0,0,0,0,0,0,0,0,3.226,3.2213,3.2321,3.2326,3.2327,3.2373,3.2374,3.2375,3.237,3.2369,3.2368,3.2367,3.2415,3.2418,3.2421,3.2464,0,0,3.2431,3.2432,0,0,0,0,0,0,0,0,3.2257,3.2264,3.2325,3.2326,3.2327,3.2364,3.2353,3.2404,3.2371,3.2354,3.2368,3.2366,3.24,3.2404,3.2416,3.2466,3.2468,3.2431,3.2433,3.2434,3.2435,0,0,0,0,0,0,0,3.2254,3.2262,3.2341,3.2325,3.2327,3.2324,3.2329,3.2363,3.2383,3.2355,3.2355,3.2361,3.24,3.2414,3.2418,3.2469,3.2431,3.2434,3.2436,3.2437,3.2551,3.2552,0,0,0,0,0,0,3.225,3.2259,3.234,3.2343,3.2289,3.2327,3.2333,3.2353,3.2382,3.2386,3.2362,3.2361,3.2409,3.2414,3.2419,3.2467,3.2434,3.2437,3.2439,3.2549,3.2551,3.2552,0,0,0,0,0,0,3.2247,3.2257,3.2337,3.2301,3.2311,3.233,3.2352,3.2355,3.2368,3.2388,3.2391,3.2373,3.2408,3.2415,3.2452,3.2469,3.2438,3.2441,3.2548,3.255,3.2552,3.2566,0,0,0,0,0,0,3.2244,3.2256,3.2274,3.2301,3.2313,3.2371,3.2354,3.2357,3.2374,3.2373,3.2398,3.2401,3.2408,3.2447,3.2455,3.2473,3.2444,3.2547,3.2549,3.2551,3.2564,3.2568,3.2571,0,0,0,0,0,3.224,3.2276,3.2275,3.2285,3.2336,3.2372,3.2379,3.2387,3.2375,3.2392,3.2404,3.24,3.2466,3.2451,3.246,3.2479,3.2545,3.2548,3.2551,3.2562,3.2567,3.2571,0,0,0,0,0,0,3.225,3.228,3.2279,3.2326,3.2346,3.2372,3.2393,3.2392,3.2416,3.2414,3.2421,3.2427,3.2463,3.2475,3.2458,3.2519,3.2504,3.2508,3.251,3.2514,3.2518,3.2513,3.2446,0,0,0,0,0,3.2258,3.2287,3.2311,3.2349,3.2359,3.2375,3.2391,3.2395,3.2416,3.2425,3.244,3.2459,3.2484,3.25,3.2524,3.2566,3.2569,3.2583,3.2586,3.2589,3.2592,3.2611,3.2616,3.2561,3.2561,3.2561,0,0,3.2274,3.2294,3.2311,3.2351,3.2368,3.2395,3.2382,3.2412,3.2431,3.2429,3.2464,3.2476,3.2498,3.2536,3.2554,3.2547,3.2608,3.2593,3.2595,3.2596,3.2614,3.2619,3.2624,3.2563,3.2562,3.2562,0,0,3.2316,3.2336,3.2367,3.2384,3.241,3.2419,3.2427,3.2452,3.2459,3.2495,3.2492,3.2514,3.2558,3.2573,3.2586,3.263,3.2626,3.2637,3.2656,3.2674,3.2678,3.2682,3.2695,3.2699,3.2641,3.2641,3.2641,0,3.2332,3.2374,3.2384,3.2413,3.2429,3.2429,3.2459,3.2475,3.2506,3.2516,3.2508,3.256,3.2576,3.2615,3.2625,3.2638,3.2644,3.2634,3.2677,3.2681,3.2685,3.2697,3.2702,3.2642,3.2642,3.2642,3.2642,0,3.239,3.242,3.2442,3.2472,3.2491,3.2521,3.2532,3.255,3.2552,3.2561,3.2595,3.2613,3.2639,3.2649,3.2651,3.2688,3.2682,3.2676,3.2661,3.2691,3.2702,3.2707,3.2643,3.2643,3.2643,3.2642,0,0,3.244,3.2474,3.2482,3.2494,3.2521,3.2543,3.2571,3.2597,3.261,3.2631,3.2653,3.2688,3.2682,3.2696,3.27,3.2716,3.2746,3.2708,3.2708,3.2711,3.2783,3.2785,3.2791,3.2744,3.2745,3.2746,3.278,0,3.2482,3.2534,3.2542,3.2586,3.261,3.2609,3.2633,3.2651,3.266,3.268,3.269,3.2713,3.2705,3.2713,3.2729,3.2739,3.276,3.2737,3.2761,3.2762,3.2753,3.2797,3.2801,3.2833,3.2785,3.2785,3.2786,0,3.2539,3.2561,3.2608,3.2628,3.2638,3.266,3.2683,3.2704,3.2722,3.2727,3.2742,3.2743,3.2769,3.2755,3.2789,3.2773,3.2783,3.2789,3.2791,3.2791,3.2774,3.2796,3.2843,3.2847,3.2794,3.2793,3.2792,0,3.2565,3.2608,3.264,3.2651,3.2676,3.2691,3.2702,3.272,3.2734,3.2753,3.2761,3.2784,3.2795,3.2811,3.2816,3.2806,3.2849,3.2836,3.2851,3.2851,3.2859,3.2858,3.2905,3.287,3.287,3.287,3.287,0,3.261,3.2638,3.2652,3.2672,3.2701,3.2709,3.2738,3.2748,3.2763,3.2783,3.2783,3.2801,3.2809,3.2828,3.2832,3.2858,3.2864,3.2866,3.2867,3.2865,3.2864,3.287,3.2867,3.2871,3.2871,3.287,3.287,0,3.2644,3.2656,3.269,3.2711,3.2717,3.2738,3.2754,3.2772,3.278,3.2805,3.2811,3.2823,3.2845,3.2852,3.2879,3.2881,3.291,3.291,3.2904,3.2903,3.2918,3.2915,3.2969,3.2975,3.2938,3.2938,3.2938,0,3.2671,3.2692,3.2715,3.2728,3.274,3.2762,3.2776,3.2784,3.2798,3.2819,3.2833,3.2855,3.2872,3.2906,3.2916,3.2935,3.2934,3.2951,3.2937,3.2933,3.2931,3.2928,3.2929,3.2953,3.2954,3.2954,3.2954,0,3.2715,3.2719,3.274,3.2762,3.2779,3.2796,3.2814,3.2824,3.2834,3.2849,3.2872,3.2885,3.2911,3.2931,3.2951,3.296,3.2957,3.2959,3.2963,3.296,3.2955,3.2955,3.2909,3.2957,3.2957,3.2957,3.2957,3.2957,3.2744,3.2761,3.2779,3.2802,3.2815,3.2831,3.2847,3.2857,3.2876,3.2899,3.2902,3.2925,3.294,3.2966,3.2975,3.2992,3.2987,3.2994,3.2995,3.2996,3.2996,3.2954,3.2996,3.2996,3.2996,3.2996,3.2995,0,3.2785,3.2796,3.2817,3.2841,3.2857,3.2856,3.2874,3.2887,3.2908,3.2923,3.294,3.2964,3.2983,3.2994,3.3012,3.3023,3.3022,3.3028,3.3026,3.3027,3.3,3.2994,3.3028,3.3028,3.3028,3.3028,3.3028,3.3028,3.2808,3.2836,3.2842,3.2876,3.2887,3.291,3.292,3.2933,3.2945,3.2972,3.2988,3.2995,3.3008,3.3027,3.3044,3.3046,3.3052,3.3057,3.3059,3.3033,3.3029,3.3026,3.302,3.3059,3.3059,3.3084,3.3084,3.3084]}]]